Regional Weather Roundup
Issued by NWS

Home | Current Version | Previous Version | Text Only | Print | Product List | Glossary On
Versions: 1 2 3 4 5 6 7 8 9 10 11 12 13 14 15 16 17 18 19 20 21 22 23 24 25 26 27 28 29 30 31 32 33 34 35 36 37 38 39 40 41 42 43 44 45 46 47 48 49 50
875
ASUS43 KFSD 290510
RWRSD

WEATHER ROUNDUP FOR SOUTH DAKOTA
NATIONAL WEATHER SERVICE SIOUX FALLS SD
1200 AM CDT FRI JUL 29 2016

NOTE: "FAIR" INDICATES FEW OR NO CLOUDS BELOW 12,000 FEET WITH NO
SIGNIFICANT WEATHER AND/OR OBSTRUCTIONS TO VISIBILITY.


SDZ001>005-009-010-012>017-290600-
NORTHWEST AND NORTH CENTRAL SOUTH DAKOTA

CITY           SKY/WX    TMP DP  RH WIND       PRES   REMARKS
BUFFALO          N/A     62  60  93 E8        30.10S
FAITH            N/A     61  60  97 NW3       30.15R
MOBRIDGE       CLOUDY    69  58  67 N6        30.09R
$$

SDZ012>016-024>037-041>051-057-063-072>074-290600-
SOUTHWEST AND SOUTH CENTRAL SOUTH DAKOTA

CITY           SKY/WX    TMP DP  RH WIND       PRES   REMARKS
RAPID CTY ARPT PTCLDY    60  57  89 NE5       30.17R
PIERRE         CLOUDY    65  63  93 CALM      30.09R
CUSTER         CLOUDY    56  52  86 NE5       30.27R
ELLSWORTH AFB  PTCLDY    62  59  91 CALM      30.17R
PHILIP         PTCLDY    62  61  96 CALM      30.13S
PINE RIDGE     CLOUDY    59  58  96 E6        30.16R
WINNER         FAIR      64  61  90 CALM      30.11S
$$

SDZ004>011-016>023-039-040-290600-
NORTHEAST SOUTH DAKOTA

CITY           SKY/WX    TMP DP  RH WIND       PRES   REMARKS
ABERDEEN       CLOUDY    65  60  84 CALM      30.09R
WATERTOWN      CLOUDY    68  57  68 NE3       30.10S
BROOKINGS      CLOUDY    64  54  69 E3        30.10R
SISSETON         N/A     66  64  93 CALM      30.07S
$$

SDZ017-020-022-023-036>040-048>070-290600-
SOUTHEAST SOUTH DAKOTA

CITY           SKY/WX    TMP DP  RH WIND       PRES   REMARKS
SIOUX FALLS    PTCLDY    61  56  83 N3        30.09R
HURON          PTCLDY    68  57  68 SE6       30.08S
CHAMBERLAIN    CLOUDY    67  65  95 SW3       30.10R
MITCHELL       CLOUDY    68  60  75 E5        30.09R
YANKTON        CLOUDY    66  57  72 NE5       30.07S
$$

ABBREVIATIONS USED IN REMARKS
   TC - TEMPERATURE IN CELSIUS
  WCI - WIND CHILL INDEX
   HX - HEAT INDEX
  VSB - VISIBILITY





USA.gov is the U.S. government's official web portal to all federal, state and local government web resources and services.